Location: Avully
(45.9633°N, 6.0228°E)
Time: 19:48:31
(UTC+00:00)

Cosmos 1709 Rocket - Pass Details

Date: 23 May 2024
Orbit: 948 x 1001 km, 82.9° (Epoch: 14 June)

Event Time Altitude Azimuth Distance (km) Brightness Sun altitude
Exits shadow 01:49:42 24° 198° (SSW) 1,933 5.0 -16.5°
Maximum altitude 01:53:45 74° 280° (W) 1,033 4.0 -16.1°
Drops below altitude 10° 02:00:08 10° 5° (N) 2,779 7.3 -15.5°
Sets 02:02:42 0° 8° (N) 3,735 8.2 -15.2°
